| time (UTC) | temp F | wind direction | speed knots | gust knots | rain 1hr in | rain 24hr in | rain mn in | humidity % | barometer mb |
| 20260504223030 | 70 | 60 | 2.6 | 6.1 | 0.00 | 0.00 | 0.00 | 33 | 1005.7 |
| 20260504221510 | 71 | 67 | 1.7 | 5.2 | 0.00 | 0.00 | 0.00 | 34 | 1005.7 |
| 20260504220028 | 71 | 103 | 3.5 | 13.9 | 0.00 | 0.00 | 0.00 | 32 | 1005.7 |
| 20260504214548 | 71 | 89 | 1.7 | 5.2 | 0.00 | 0.00 | 0.00 | 32 | 1005.7 |
| 20260504213107 | 71 | 72 | 0.9 | 4.3 | 0.00 | 0.00 | 0.00 | 33 | 1005.7 |
| 20260504211540 | 73 | 85 | 0.9 | 8.7 | 0.00 | 0.00 | 0.00 | 32 | 1005.7 |
| 20260504210035 | 73 | 84 | 1.7 | 4.3 | 0.00 | 0.00 | 0.00 | 30 | 1005.8 |
| 20260504204540 | 73 | 117 | 2.6 | 10.4 | 0.00 | 0.00 | 0.00 | 29 | 1005.7 |
| 20260504203034 | 73 | 55 | 2.6 | 13.9 | 0.00 | 0.00 | 0.00 | 31 | 1005.8 |
| 20260504201533 | 74 | 78 | 4.3 | 7.8 | 0.00 | 0.00 | 0.00 | 29 | 1005.6 |
| 20260504200033 | 74 | 65 | 2.6 | 8.7 | 0.00 | 0.00 | 0.00 | 29 | 1005.7 |
| 20260504194528 | 73 | 146 | 1.7 | 8.7 | 0.00 | 0.00 | 0.00 | 34 | 1005.8 |
| 20260504193027 | 72 | 131 | 3.5 | 11.3 | 0.00 | 0.00 | 0.00 | 29 | 1005.8 |
| 20260504191516 | 73 | 77 | 3.5 | 9.6 | 0.00 | 0.00 | 0.00 | 28 | 1005.8 |
| 20260504190015 | 74 | 94 | 2.6 | 11.3 | 0.00 | 0.00 | 0.00 | 28 | 1005.9 |
| 20260504184512 | 74 | 47 | 2.6 | 9.6 | 0.00 | 0.00 | 0.00 | 28 | 1006.1 |
| 20260504183009 | 72 | 101 | 5.2 | 15.6 | 0.00 | 0.00 | 0.00 | 29 | 1006.3 |
| 20260504181507 | 72 | 86 | 3.5 | 12.2 | 0.00 | 0.00 | 0.00 | 30 | 1006.5 |
| 20260504180141 | 72 | 101 | 2.6 | 11.3 | 0.00 | 0.00 | 0.00 | 29 | 1006.4 |
| 20260504174502 | 71 | 360 | 4.3 | 9.6 | 0.00 | 0.00 | 0.00 | 30 | 1006.5 |
| 20260504173058 | 70 | 65 | 3.5 | 11.3 | 0.00 | 0.00 | 0.00 | 31 | 1006.7 |
| 20260504171549 | 70 | 98 | 2.6 | 12.2 | 0.00 | 0.00 | 0.00 | 33 | 1006.9 |
| 20260504140103 | 62 | 5 | 1.7 | 7.8 | 0.00 | 0.00 | 0.00 | 46 | 1008.8 |
| 20260504120109 | 52 | 56 | 0.9 | 4.3 | 0.00 | 0.04 | 0.00 | 56 | 1010.0 |
| 20260504081505 | 41 | 64 | 0.0 | 0.0 | 0.00 | 0.04 | 0.00 | 75 | 1010.4 |
| 20260504044541 | 33 | 64 | 0.0 | 0.0 | 0.00 | 0.04 | 0.00 | 88 | 1010.5 |
| 20260504043038 | 33 | 64 | 0.0 | 0.0 | 0.00 | 0.04 | 0.00 | 87 | 1010.4 |
| 20260504041525 | 33 | 64 | 0.0 | 0.0 | 0.00 | 0.04 | 0.00 | 87 | 1010.4 |
| 20260504040025 | 33 | 65 | 0.0 | 0.0 | 0.00 | 0.04 | 0.00 | 86 | 1010.3 |
| 20260504034520 | 34 | 64 | 0.0 | 0.0 | 0.00 | 0.04 | 0.00 | 85 | 1010.1 |
| 20260504033018 | 34 | 64 | 0.0 | 0.0 | 0.00 | 0.04 | 0.00 | 84 | 1010.0 |
| 20260504031518 | 35 | 64 | 0.0 | 0.0 | 0.00 | 0.04 | 0.00 | 83 | 1010.1 |
| 20260504030014 | 35 | 64 | 0.0 | 0.0 | 0.00 | 0.04 | 0.00 | 82 | 1010.2 |
| 20260504024510 | 36 | 64 | 0.0 | 0.0 | 0.00 | 0.04 | 0.00 | 80 | 1010.0 |
| 20260504023050 | 36 | 64 | 0.0 | 0.0 | 0.00 | 0.04 | 0.00 | 78 | 1010.0 |
| 20260504021547 | 37 | 64 | 0.0 | 0.0 | 0.00 | 0.04 | 0.00 | 76 | 1010.0 |
| 20260504020034 | 38 | 64 | 0.0 | 0.0 | 0.00 | 0.04 | 0.00 | 73 | 1009.8 |
| 20260504014531 | 39 | 64 | 0.0 | 0.0 | 0.00 | 0.04 | 0.00 | 71 | 1009.7 |
| 20260504013011 | 40 | 65 | 0.0 | 0.0 | 0.00 | 0.04 | 0.00 | 69 | 1009.6 |
| 20260504011506 | 41 | 64 | 0.0 | 0.0 | 0.00 | 0.04 | 0.00 | 66 | 1009.4 |
| 20260504010001 | 42 | 64 | 0.0 | 0.0 | 0.00 | 0.04 | 0.00 | 65 | 1009.4 |
| 20260504004627 | 43 | 64 | 0.0 | 0.0 | 0.00 | 0.04 | 0.00 | 62 | 1009.2 |
| 20260504003054 | 44 | 65 | 0.0 | 0.0 | 0.00 | 0.04 | 0.00 | 56 | 1009.0 |
| 20260504001551 | 46 | 64 | 0.0 | 0.0 | 0.00 | 0.04 | 0.00 | 53 | 1008.7 |
| 20260504000048 | 48 | 67 | 0.0 | 1.7 | 0.00 | 0.04 | 0.00 | 51 | 1008.6 |
| 20260503234540 | 49 | 360 | 0.0 | 2.6 | 0.00 | 0.04 | 0.00 | 49 | 1008.5 |
| 20260503233023 | 49 | 360 | 1.7 | 3.5 | 0.00 | 0.04 | 0.00 | 46 | 1008.3 |
| 20260503231522 | 50 | 360 | 0.0 | 2.6 | 0.00 | 0.04 | 0.00 | 46 | 1008.1 |
| 20260503230018 | 51 | 360 | 0.0 | 4.3 | 0.00 | 0.04 | 0.00 | 45 | 1008.0 |
| 20260503224516 | 51 | 360 | 1.7 | 5.2 | 0.00 | 0.04 | 0.00 | 44 | 1007.9 |